Time,TemperatureF,DewpointF,PressureIn,WindDirection,WindDirectionDegrees,WindSpeedMPH,WindSpeedGustMPH,Humidity,HourlyPrecipIn,Conditions,Clouds,dailyrainin,SoftwareType,DateUTC
2013-09-20 00:00:00,52.7,46.0,29.94,East,80,0.0,0.0,78,0.00,,CLR,0.00,VWS V14.01,2013-09-20 07:00:00,
2013-09-20 00:06:00,52.6,46.0,29.94,East,80,0.0,0.0,78,0.00,,CLR,0.00,VWS V14.01,2013-09-20 07:06:00,
2013-09-20 00:11:00,52.7,46.0,29.94,East,80,0.0,0.0,78,0.00,,CLR,0.00,VWS V14.01,2013-09-20 07:11:00,
2013-09-20 00:16:00,52.6,46.0,29.94,East,80,0.0,0.0,78,0.00,,CLR,0.00,VWS V14.01,2013-09-20 07:16:00,
2013-09-20 00:21:00,52.6,46.0,29.94,East,80,0.0,0.0,78,0.00,,CLR,0.00,VWS V14.01,2013-09-20 07:21:00,
2013-09-20 00:26:00,52.4,46.1,29.94,East,80,0.0,0.0,79,0.00,,CLR,0.00,VWS V14.01,2013-09-20 07:26:00,
2013-09-20 00:31:00,52.4,46.1,29.94,East,80,0.0,0.0,79,0.00,,CLR,0.00,VWS V14.01,2013-09-20 07:31:00,
2013-09-20 00:36:00,52.3,46.0,29.94,East,80,0.0,0.0,79,0.00,,CLR,0.00,VWS V14.01,2013-09-20 07:36:00,
2013-09-20 00:41:00,52.3,46.0,29.94,East,80,0.0,0.0,79,0.00,,CLR,0.00,VWS V14.01,2013-09-20 07:41:00,
2013-09-20 00:46:00,52.3,46.0,29.94,East,80,0.0,0.0,79,0.00,,CLR,0.00,VWS V14.01,2013-09-20 07:46:00,
2013-09-20 00:51:00,52.3,46.0,29.93,East,80,0.0,0.0,79,0.00,,CLR,0.00,VWS V14.01,2013-09-20 07:51:00,
2013-09-20 00:56:00,52.3,46.0,29.93,East,80,0.0,0.0,79,0.00,,CLR,0.00,VWS V14.01,2013-09-20 07:56:00,
2013-09-20 01:02:00,52.3,46.0,29.93,East,80,0.0,0.0,79,0.00,,CLR,0.00,VWS V14.01,2013-09-20 08:02:00,
2013-09-20 01:07:00,52.3,46.0,29.93,East,80,0.0,0.0,79,0.00,,CLR,0.00,VWS V14.01,2013-09-20 08:07:00,
2013-09-20 01:12:00,52.4,46.1,29.93,East,80,0.0,0.0,79,0.00,,CLR,0.00,VWS V14.01,2013-09-20 08:12:00,
2013-09-20 01:17:00,52.6,46.0,29.93,East,80,0.0,0.0,78,0.00,,CLR,0.00,VWS V14.01,2013-09-20 08:17:00,
2013-09-20 01:22:00,52.6,46.0,29.93,East,80,0.0,0.0,78,0.00,,CLR,0.00,VWS V14.01,2013-09-20 08:22:00,
2013-09-20 01:27:00,52.4,46.1,29.93,East,80,0.0,2.0,79,0.00,,CLR,0.00,VWS V14.01,2013-09-20 08:27:00,
2013-09-20 01:32:00,52.3,46.0,29.93,East,80,0.0,0.0,79,0.00,,CLR,0.00,VWS V14.01,2013-09-20 08:32:00,
2013-09-20 01:37:00,52.3,46.0,29.93,East,80,0.0,1.0,79,0.00,,CLR,0.00,VWS V14.01,2013-09-20 08:37:00,
2013-09-20 01:42:00,52.3,46.3,29.93,East,80,0.0,0.0,80,0.00,,CLR,0.00,VWS V14.01,2013-09-20 08:42:00,
2013-09-20 01:47:00,52.3,46.3,29.92,East,80,0.0,0.0,80,0.00,,CLR,0.00,VWS V14.01,2013-09-20 08:47:00,
2013-09-20 01:52:00,52.1,46.1,29.92,East,80,0.0,0.0,80,0.00,,CLR,0.00,VWS V14.01,2013-09-20 08:52:00,
2013-09-20 01:57:00,52.1,46.1,29.92,East,80,0.0,0.0,80,0.00,,CLR,0.00,VWS V14.01,2013-09-20 08:57:00,
2013-09-20 02:02:00,52.0,46.0,29.92,East,80,0.0,0.0,80,0.00,,CLR,0.00,VWS V14.01,2013-09-20 09:02:00,
2013-09-20 02:08:00,52.0,46.0,29.92,East,80,0.0,0.0,80,0.00,,CLR,0.00,VWS V14.01,2013-09-20 09:08:00,
2013-09-20 02:13:00,51.8,45.8,29.92,East,80,0.0,0.0,80,0.00,,CLR,0.00,VWS V14.01,2013-09-20 09:13:00,
2013-09-20 02:18:00,51.7,46.1,29.91,East,80,0.0,0.0,81,0.00,,CLR,0.00,VWS V14.01,2013-09-20 09:18:00,
2013-09-20 02:23:00,51.5,45.5,29.91,East,80,0.0,0.0,80,0.00,,CLR,0.00,VWS V14.01,2013-09-20 09:23:00,
2013-09-20 02:28:00,51.5,45.5,29.91,East,80,0.0,0.0,80,0.00,,CLR,0.00,VWS V14.01,2013-09-20 09:28:00,
2013-09-20 02:33:00,51.4,45.8,29.91,East,80,0.0,0.0,81,0.00,,CLR,0.00,VWS V14.01,2013-09-20 09:33:00,
2013-09-20 02:38:00,51.4,45.8,29.91,East,80,0.0,0.0,81,0.00,,CLR,0.00,VWS V14.01,2013-09-20 09:38:00,
2013-09-20 02:43:00,51.2,45.6,29.91,East,80,0.0,0.0,81,0.00,,CLR,0.00,VWS V14.01,2013-09-20 09:43:00,
2013-09-20 02:48:00,51.2,45.6,29.91,East,80,0.0,0.0,81,0.00,,CLR,0.00,VWS V14.01,2013-09-20 09:48:00,
2013-09-20 02:53:00,51.1,45.5,29.91,East,80,1.0,1.0,81,0.00,,CLR,0.00,VWS V14.01,2013-09-20 09:53:00,
2013-09-20 02:58:00,51.1,45.5,29.91,East,80,0.0,1.0,81,0.00,,CLR,0.00,VWS V14.01,2013-09-20 09:58:00,
2013-09-20 03:03:00,51.1,45.5,29.90,East,80,0.0,0.0,81,0.00,,CLR,0.00,VWS V14.01,2013-09-20 10:03:00,
2013-09-20 03:08:00,50.9,45.6,29.90,East,80,0.0,0.0,82,0.00,,CLR,0.00,VWS V14.01,2013-09-20 10:08:00,
2013-09-20 03:13:00,50.9,45.6,29.90,East,80,0.0,0.0,82,0.00,,CLR,0.00,VWS V14.01,2013-09-20 10:13:00,
2013-09-20 03:19:00,50.8,45.5,29.90,East,80,0.0,1.0,82,0.00,,CLR,0.00,VWS V14.01,2013-09-20 10:19:00,
2013-09-20 03:24:00,50.8,45.5,29.90,East,80,0.0,1.0,82,0.00,,CLR,0.00,VWS V14.01,2013-09-20 10:24:00,
2013-09-20 03:29:00,50.8,45.8,29.90,East,80,0.0,0.0,83,0.00,,CLR,0.00,VWS V14.01,2013-09-20 10:29:00,
2013-09-20 03:34:00,50.5,45.5,29.90,East,80,0.0,0.0,83,0.00,,CLR,0.00,VWS V14.01,2013-09-20 10:34:00,
2013-09-20 03:39:00,50.4,45.4,29.90,ESE,109,0.0,0.0,83,0.00,,CLR,0.00,VWS V14.01,2013-09-20 10:39:00,
2013-09-20 03:44:00,50.4,45.4,29.90,ESE,109,0.0,0.0,83,0.00,,CLR,0.00,VWS V14.01,2013-09-20 10:44:00,
2013-09-20 03:49:00,50.4,45.4,29.89,ESE,109,0.0,0.0,83,0.00,,CLR,0.00,VWS V14.01,2013-09-20 10:49:00,
2013-09-20 03:54:00,50.2,45.2,29.89,ESE,109,0.0,0.0,83,0.00,,CLR,0.00,VWS V14.01,2013-09-20 10:54:00,
2013-09-20 03:59:00,50.2,45.2,29.89,ESE,112,0.0,0.0,83,0.00,,CLR,0.00,VWS V14.01,2013-09-20 10:59:00,
2013-09-20 04:04:00,50.1,45.2,29.89,ESE,112,0.0,0.0,83,0.00,,CLR,0.00,VWS V14.01,2013-09-20 11:04:00,
2013-09-20 04:10:00,50.1,45.2,29.89,ESE,112,0.0,0.0,83,0.00,,CLR,0.00,VWS V14.01,2013-09-20 11:10:00,
2013-09-20 04:15:00,49.8,45.2,29.89,ESE,112,0.0,0.0,84,0.00,,CLR,0.00,VWS V14.01,2013-09-20 11:15:00,
2013-09-20 04:20:00,49.6,45.0,29.89,ESE,112,0.0,0.0,84,0.00,,CLR,0.00,VWS V14.01,2013-09-20 11:20:00,
2013-09-20 04:25:00,49.5,45.2,29.89,ESE,112,0.0,0.0,85,0.00,,CLR,0.00,VWS V14.01,2013-09-20 11:25:00,
2013-09-20 04:30:00,49.6,45.3,29.89,ESE,112,0.0,0.0,85,0.00,,CLR,0.00,VWS V14.01,2013-09-20 11:30:00,
2013-09-20 04:35:00,49.6,45.3,29.89,ESE,112,0.0,0.0,85,0.00,,CLR,0.00,VWS V14.01,2013-09-20 11:35:00,
2013-09-20 04:40:00,49.5,45.2,29.89,ESE,112,0.0,0.0,85,0.00,,CLR,0.00,VWS V14.01,2013-09-20 11:40:00,
2013-09-20 04:45:00,49.5,45.2,29.89,ESE,112,0.0,0.0,85,0.00,,CLR,0.00,VWS V14.01,2013-09-20 11:45:00,
2013-09-20 04:50:00,49.5,45.2,29.88,ESE,112,0.0,0.0,85,0.00,,CLR,0.00,VWS V14.01,2013-09-20 11:50:00,
2013-09-20 04:55:00,49.6,45.3,29.88,ESE,112,0.0,0.0,85,0.00,,CLR,0.00,VWS V14.01,2013-09-20 11:55:00,
2013-09-20 05:01:00,49.8,45.5,29.88,ESE,112,0.0,0.0,85,0.00,,CLR,0.00,VWS V14.01,2013-09-20 12:01:00,
2013-09-20 05:06:00,49.8,45.5,29.88,ESE,112,0.0,1.0,85,0.00,,CLR,0.00,VWS V14.01,2013-09-20 12:06:00,
2013-09-20 05:12:00,49.8,45.8,29.88,North,0,0.0,0.0,86,0.00,,CLR,0.00,VWS V14.01,2013-09-20 12:12:00,
2013-09-20 05:17:00,49.6,45.9,29.88,ESE,112,0.0,0.0,87,0.00,,CLR,0.00,VWS V14.01,2013-09-20 12:17:00,
2013-09-20 05:22:00,49.5,45.8,29.88,ESE,112,0.0,0.0,87,0.00,,CLR,0.00,VWS V14.01,2013-09-20 12:22:00,
2013-09-20 05:28:00,49.3,45.6,29.88,ESE,112,0.0,0.0,87,0.00,,CLR,0.00,VWS V14.01,2013-09-20 12:28:00,
2013-09-20 05:33:00,49.3,45.6,29.87,ESE,112,0.0,0.0,87,0.00,,CLR,0.00,VWS V14.01,2013-09-20 12:33:00,
2013-09-20 05:38:00,49.3,45.6,29.87,ESE,112,0.0,0.0,87,0.00,,CLR,0.00,VWS V14.01,2013-09-20 12:38:00,
2013-09-20 05:43:00,49.3,45.6,29.87,ESE,112,0.0,0.0,87,0.00,,CLR,0.00,VWS V14.01,2013-09-20 12:43:00,
2013-09-20 05:48:00,49.5,45.8,29.87,ESE,112,0.0,0.0,87,0.00,,CLR,0.00,VWS V14.01,2013-09-20 12:48:00,
2013-09-20 05:53:00,49.8,46.1,29.87,ESE,112,0.0,0.0,87,0.00,,CLR,0.00,VWS V14.01,2013-09-20 12:53:00,
2013-09-20 05:58:00,49.8,46.1,29.87,ESE,112,0.0,0.0,87,0.00,,CLR,0.00,VWS V14.01,2013-09-20 12:58:00,
2013-09-20 06:03:00,49.9,45.9,29.87,SSE,147,0.0,0.0,86,0.00,,CLR,0.00,VWS V14.01,2013-09-20 13:03:00,
2013-09-20 06:08:00,50.2,45.6,29.87,ENE,71,0.0,1.0,84,0.00,,CLR,0.00,VWS V14.01,2013-09-20 13:08:00,
2013-09-20 06:14:00,50.4,46.1,29.87,ENE,71,0.0,0.0,85,0.00,,CLR,0.00,VWS V14.01,2013-09-20 13:14:00,
2013-09-20 06:19:00,50.8,46.2,29.87,East,86,0.0,1.0,84,0.00,,CLR,0.00,VWS V14.01,2013-09-20 13:19:00,
2013-09-20 06:24:00,50.6,45.6,29.87,East,100,1.0,1.0,83,0.00,,CLR,0.00,VWS V14.01,2013-09-20 13:24:00,
2013-09-20 06:29:00,50.5,45.8,29.87,East,100,0.0,1.0,84,0.00,,CLR,0.00,VWS V14.01,2013-09-20 13:29:00,
2013-09-20 06:34:00,50.6,46.0,29.87,East,83,0.0,2.0,84,0.00,,CLR,0.00,VWS V14.01,2013-09-20 13:34:00,
2013-09-20 06:39:00,50.8,46.2,29.87,East,83,0.0,1.0,84,0.00,,CLR,0.00,VWS V14.01,2013-09-20 13:39:00,
2013-09-20 06:44:00,50.8,45.8,29.87,East,83,0.0,0.0,83,0.00,,CLR,0.00,VWS V14.01,2013-09-20 13:44:00,
2013-09-20 06:49:00,50.8,45.8,29.87,East,83,0.0,0.0,83,0.00,,CLR,0.00,VWS V14.01,2013-09-20 13:49:00,
2013-09-20 06:54:00,50.5,45.5,29.87,East,83,0.0,0.0,83,0.00,,CLR,0.00,VWS V14.01,2013-09-20 13:54:00,
2013-09-20 06:59:00,50.4,45.4,29.87,East,83,0.0,0.0,83,0.00,,CLR,0.00,VWS V14.01,2013-09-20 13:59:00,
2013-09-20 07:04:00,50.6,45.6,29.87,East,83,0.0,1.0,83,0.00,,CLR,0.00,VWS V14.01,2013-09-20 14:04:00,
2013-09-20 07:09:00,50.8,45.8,29.87,East,83,3.0,3.0,83,0.00,,CLR,0.00,VWS V14.01,2013-09-20 14:09:00,
2013-09-20 07:14:00,50.9,45.9,29.87,East,83,0.0,0.0,83,0.00,,CLR,0.00,VWS V14.01,2013-09-20 14:14:00,
2013-09-20 07:20:00,51.1,46.1,29.86,ENE,61,0.0,5.0,83,0.00,,CLR,0.00,VWS V14.01,2013-09-20 14:20:00,
2013-09-20 07:25:00,51.5,46.2,29.86,ENE,66,1.0,2.0,82,0.00,,CLR,0.00,VWS V14.01,2013-09-20 14:25:00,
2013-09-20 07:30:00,51.8,46.2,29.86,ESE,103,0.0,2.0,81,0.00,,CLR,0.00,VWS V14.01,2013-09-20 14:30:00,
2013-09-20 07:35:00,52.1,46.5,29.86,ESE,103,0.0,2.0,81,0.00,,CLR,0.00,VWS V14.01,2013-09-20 14:35:00,
2013-09-20 07:40:00,52.4,46.4,29.86,East,93,0.0,5.0,80,0.00,,CLR,0.00,VWS V14.01,2013-09-20 14:40:00,
2013-09-20 07:45:00,52.9,46.9,29.86,NE,42,1.0,1.0,80,0.00,,CLR,0.00,VWS V14.01,2013-09-20 14:45:00,
2013-09-20 07:50:00,53.2,46.9,29.86,East,90,0.0,5.0,79,0.00,,CLR,0.00,VWS V14.01,2013-09-20 14:50:00,
2013-09-20 07:55:00,53.2,46.9,29.86,East,90,0.0,3.0,79,0.00,,CLR,0.00,VWS V14.01,2013-09-20 14:55:00,
2013-09-20 08:00:00,53.3,47.0,29.86,East,90,2.0,2.0,79,0.00,,CLR,0.00,VWS V14.01,2013-09-20 15:00:00,
2013-09-20 08:05:00,53.5,47.2,29.86,ENE,75,0.0,1.0,79,0.00,,CLR,0.00,VWS V14.01,2013-09-20 15:05:00,
2013-09-20 08:10:00,53.9,47.2,29.86,East,92,0.0,6.0,78,0.00,,CLR,0.00,VWS V14.01,2013-09-20 15:10:00,
2013-09-20 08:15:00,54.3,46.9,29.86,ENE,78,3.0,3.0,76,0.00,,CLR,0.00,VWS V14.01,2013-09-20 15:15:00,
2013-09-20 08:20:00,54.6,47.2,29.85,East,95,3.0,5.0,76,0.00,,CLR,0.00,VWS V14.01,2013-09-20 15:20:00,
2013-09-20 08:25:00,54.8,47.4,29.85,East,83,0.0,0.0,76,0.00,,CLR,0.00,VWS V14.01,2013-09-20 15:25:00,
2013-09-20 08:31:00,55.2,47.1,29.85,ESE,107,2.0,6.0,74,0.00,,CLR,0.00,VWS V14.01,2013-09-20 15:31:00,
2013-09-20 08:36:00,55.5,47.4,29.85,East,79,1.0,3.0,74,0.00,,CLR,0.00,VWS V14.01,2013-09-20 15:36:00,
2013-09-20 08:41:00,55.8,47.7,29.85,East,100,0.0,3.0,74,0.00,,CLR,0.00,VWS V14.01,2013-09-20 15:41:00,
2013-09-20 08:46:00,56.1,47.6,29.85,East,93,1.0,2.0,73,0.00,,CLR,0.00,VWS V14.01,2013-09-20 15:46:00,
2013-09-20 08:51:00,56.4,47.9,29.85,East,80,0.0,0.0,73,0.00,,CLR,0.00,VWS V14.01,2013-09-20 15:51:00,
2013-09-20 08:56:00,56.7,47.8,29.85,East,89,2.0,2.0,72,0.00,,CLR,0.00,VWS V14.01,2013-09-20 15:56:00,
2013-09-20 09:01:00,57.2,48.3,29.85,East,96,1.0,3.0,72,0.00,,CLR,0.00,VWS V14.01,2013-09-20 16:01:00,
2013-09-20 09:06:00,57.5,48.6,29.84,ENE,66,2.0,6.0,72,0.00,,CLR,0.00,VWS V14.01,2013-09-20 16:06:00,
2013-09-20 09:11:00,57.9,48.2,29.84,ENE,65,0.0,2.0,70,0.00,,CLR,0.00,VWS V14.01,2013-09-20 16:11:00,
2013-09-20 09:16:00,58.3,48.6,29.84,East,85,1.0,2.0,70,0.00,,CLR,0.00,VWS V14.01,2013-09-20 16:16:00,
2013-09-20 09:21:00,58.8,48.3,29.84,East,89,1.0,5.0,68,0.00,,CLR,0.00,VWS V14.01,2013-09-20 16:21:00,
2013-09-20 09:26:00,59.0,48.5,29.84,East,93,2.0,2.0,68,0.00,,CLR,0.00,VWS V14.01,2013-09-20 16:26:00,
2013-09-20 09:31:00,59.3,48.4,29.84,ENE,78,2.0,6.0,67,0.00,,CLR,0.00,VWS V14.01,2013-09-20 16:31:00,
2013-09-20 09:36:00,59.7,49.5,29.84,ENE,75,1.0,2.0,69,0.00,,CLR,0.00,VWS V14.01,2013-09-20 16:36:00,
2013-09-20 09:41:00,59.9,49.7,29.84,East,88,0.0,0.0,69,0.00,,CLR,0.00,VWS V14.01,2013-09-20 16:41:00,
2013-09-20 09:46:00,60.2,48.4,29.84,East,90,1.0,3.0,65,0.00,,CLR,0.00,VWS V14.01,2013-09-20 16:46:00,
2013-09-20 09:51:00,60.5,49.1,29.83,East,97,0.0,2.0,66,0.00,,CLR,0.00,VWS V14.01,2013-09-20 16:51:00,
2013-09-20 09:56:00,60.6,48.0,29.83,East,79,2.0,3.0,63,0.00,,CLR,0.00,VWS V14.01,2013-09-20 16:56:00,
2013-09-20 10:01:00,60.8,48.6,29.83,East,88,0.0,3.0,64,0.00,,CLR,0.00,VWS V14.01,2013-09-20 17:01:00,
2013-09-20 10:06:00,61.2,48.1,29.83,NE,41,0.0,1.0,62,0.00,,CLR,0.00,VWS V14.01,2013-09-20 17:06:00,
2013-09-20 10:12:00,61.5,48.8,29.83,East,85,5.0,5.0,63,0.00,,CLR,0.00,VWS V14.01,2013-09-20 17:12:00,
2013-09-20 10:17:00,61.5,48.8,29.83,ENE,73,5.0,5.0,63,0.00,,CLR,0.00,VWS V14.01,2013-09-20 17:17:00,
2013-09-20 10:22:00,62.8,48.7,29.82,ENE,72,0.0,7.0,60,0.00,,CLR,0.00,VWS V14.01,2013-09-20 17:22:00,
2013-09-20 10:27:00,63.0,48.9,29.82,ENE,68,2.0,5.0,60,0.00,,CLR,0.00,VWS V14.01,2013-09-20 17:27:00,
2013-09-20 10:32:00,63.1,48.1,29.82,ENE,69,0.0,3.0,58,0.00,,CLR,0.00,VWS V14.01,2013-09-20 17:32:00,
2013-09-20 10:37:00,63.6,48.6,29.81,East,82,5.0,7.0,58,0.00,,CLR,0.00,VWS V14.01,2013-09-20 17:37:00,
2013-09-20 10:42:00,63.4,47.9,29.81,ENE,76,0.0,1.0,57,0.00,,CLR,0.00,VWS V14.01,2013-09-20 17:42:00,
2013-09-20 10:47:00,63.9,48.8,29.81,East,88,6.0,6.0,58,0.00,,CLR,0.00,VWS V14.01,2013-09-20 17:47:00,
2013-09-20 10:52:00,64.4,48.8,29.81,East,100,1.0,5.0,57,0.00,,CLR,0.00,VWS V14.01,2013-09-20 17:52:00,
2013-09-20 10:57:00,64.9,49.3,29.81,East,88,5.0,5.0,57,0.00,,CLR,0.00,VWS V14.01,2013-09-20 17:57:00,
2013-09-20 11:02:00,65.2,50.5,29.80,ESE,123,2.0,2.0,59,0.00,,CLR,0.00,VWS V14.01,2013-09-20 18:02:00,
2013-09-20 11:07:00,65.5,48.9,29.80,East,95,0.0,3.0,55,0.00,,CLR,0.00,VWS V14.01,2013-09-20 18:07:00,
2013-09-20 11:12:00,65.8,50.6,29.80,East,100,1.0,3.0,58,0.00,,CLR,0.00,VWS V14.01,2013-09-20 18:12:00,
2013-09-20 11:18:00,66.3,51.1,29.79,East,95,0.0,1.0,58,0.00,,CLR,0.00,VWS V14.01,2013-09-20 18:18:00,
2013-09-20 11:23:00,66.5,51.3,29.79,East,86,0.0,5.0,58,0.00,,CLR,0.00,VWS V14.01,2013-09-20 18:23:00,
2013-09-20 11:28:00,67.0,49.3,29.79,East,86,0.0,3.0,53,0.00,,CLR,0.00,VWS V14.01,2013-09-20 18:28:00,
2013-09-20 11:33:00,67.1,49.4,29.78,ENE,76,2.0,3.0,53,0.00,,CLR,0.00,VWS V14.01,2013-09-20 18:33:00,
2013-09-20 11:38:00,67.8,50.6,29.78,East,97,0.0,5.0,54,0.00,,CLR,0.00,VWS V14.01,2013-09-20 18:38:00,
2013-09-20 11:43:00,68.3,49.0,29.78,East,80,2.0,5.0,50,0.00,,CLR,0.00,VWS V14.01,2013-09-20 18:43:00,
2013-09-20 11:48:00,68.4,51.6,29.77,ENE,72,2.0,2.0,55,0.00,,CLR,0.00,VWS V14.01,2013-09-20 18:48:00,
2013-09-20 11:53:00,68.6,50.3,29.77,ESE,103,2.0,3.0,52,0.00,,CLR,0.00,VWS V14.01,2013-09-20 18:53:00,
2013-09-20 11:58:00,68.6,50.3,29.77,East,96,0.0,3.0,52,0.00,,CLR,0.00,VWS V14.01,2013-09-20 18:58:00,
2013-09-20 12:03:00,68.8,50.5,29.77,East,82,0.0,5.0,52,0.00,,CLR,0.00,VWS V14.01,2013-09-20 19:03:00,
2013-09-20 12:09:00,69.4,50.5,29.77,ENE,58,5.0,6.0,51,0.00,,CLR,0.00,VWS V14.01,2013-09-20 19:09:00,
2013-09-20 12:14:00,69.6,50.2,29.77,East,79,2.0,5.0,50,0.00,,CLR,0.00,VWS V14.01,2013-09-20 19:14:00,
2013-09-20 12:19:00,70.1,50.6,29.76,ENE,78,5.0,5.0,50,0.00,,CLR,0.00,VWS V14.01,2013-09-20 19:19:00,
2013-09-20 12:24:00,70.4,49.2,29.76,East,100,0.0,3.0,47,0.00,,CLR,0.00,VWS V14.01,2013-09-20 19:24:00,
2013-09-20 12:29:00,70.8,49.6,29.76,East,86,0.0,3.0,47,0.00,,CLR,0.00,VWS V14.01,2013-09-20 19:29:00,
2013-09-20 12:34:00,71.1,48.7,29.75,ESE,112,2.0,7.0,45,0.00,,CLR,0.00,VWS V14.01,2013-09-20 19:34:00,
2013-09-20 12:39:00,71.3,47.7,29.75,East,82,1.0,3.0,43,0.00,,CLR,0.00,VWS V14.01,2013-09-20 19:39:00,
2013-09-20 12:44:00,71.6,48.6,29.75,East,86,0.0,0.0,44,0.00,,CLR,0.00,VWS V14.01,2013-09-20 19:44:00,
2013-09-20 12:49:00,72.1,51.9,29.74,ENE,62,0.0,0.0,49,0.00,,CLR,0.00,VWS V14.01,2013-09-20 19:49:00,
2013-09-20 12:54:00,72.5,48.8,29.74,East,88,0.0,3.0,43,0.00,,CLR,0.00,VWS V14.01,2013-09-20 19:54:00,
2013-09-20 12:59:00,72.6,50.1,29.74,East,100,0.0,0.0,45,0.00,,CLR,0.00,VWS V14.01,2013-09-20 19:59:00,
2013-09-20 13:04:00,72.8,48.4,29.74,East,79,1.0,1.0,42,0.00,,CLR,0.00,VWS V14.01,2013-09-20 20:04:00,
2013-09-20 13:10:00,73.3,50.1,29.74,ENE,76,0.0,1.0,44,0.00,,CLR,0.00,VWS V14.01,2013-09-20 20:10:00,
2013-09-20 13:15:00,73.7,50.5,29.74,ENE,76,1.0,2.0,44,0.00,,CLR,0.00,VWS V14.01,2013-09-20 20:15:00,
2013-09-20 13:20:00,73.8,48.0,29.73,ESE,109,0.0,1.0,40,0.00,,CLR,0.00,VWS V14.01,2013-09-20 20:20:00,
2013-09-20 13:25:00,74.2,50.3,29.73,ENE,75,1.0,1.0,43,0.00,,CLR,0.00,VWS V14.01,2013-09-20 20:25:00,
2013-09-20 13:30:00,74.7,49.5,29.73,NE,54,2.0,2.0,41,0.00,,CLR,0.00,VWS V14.01,2013-09-20 20:30:00,
2013-09-20 13:35:00,74.9,49.6,29.72,East,100,2.0,2.0,41,0.00,,CLR,0.00,VWS V14.01,2013-09-20 20:35:00,
2013-09-20 13:40:00,75.0,49.1,29.72,ENE,58,2.0,2.0,40,0.00,,CLR,0.00,VWS V14.01,2013-09-20 20:40:00,
2013-09-20 13:45:00,75.2,50.6,29.72,ESE,109,1.0,1.0,42,0.00,,CLR,0.00,VWS V14.01,2013-09-20 20:45:00,
2013-09-20 13:50:00,75.2,47.2,29.71,East,97,0.0,0.0,37,0.00,,CLR,0.00,VWS V14.01,2013-09-20 20:50:00,
2013-09-20 13:55:00,75.2,48.6,29.71,ESE,114,0.0,2.0,39,0.00,,CLR,0.00,VWS V14.01,2013-09-20 20:55:00,
2013-09-20 14:00:00,75.4,47.3,29.71,East,92,0.0,1.0,37,0.00,,CLR,0.00,VWS V14.01,2013-09-20 21:00:00,
2013-09-20 14:05:00,75.6,48.9,29.70,East,79,0.0,0.0,39,0.00,,CLR,0.00,VWS V14.01,2013-09-20 21:05:00,
2013-09-20 14:10:00,75.7,50.4,29.70,East,86,0.0,0.0,41,0.00,,CLR,0.00,VWS V14.01,2013-09-20 21:10:00,
2013-09-20 14:15:00,75.9,50.5,29.70,East,85,0.0,5.0,41,0.00,,CLR,0.00,VWS V14.01,2013-09-20 21:15:00,
2013-09-20 14:20:00,76.1,50.0,29.69,ENE,61,0.0,0.0,40,0.00,,CLR,0.00,VWS V14.01,2013-09-20 21:20:00,
2013-09-20 14:25:00,76.3,46.7,29.69,NE,56,3.0,3.0,35,0.00,,CLR,0.00,VWS V14.01,2013-09-20 21:25:00,
2013-09-20 14:30:00,76.4,48.9,29.69,East,85,1.0,1.0,38,0.00,,CLR,0.00,VWS V14.01,2013-09-20 21:30:00,
2013-09-20 14:35:00,76.3,46.7,29.68,ENE,59,1.0,1.0,35,0.00,,CLR,0.00,VWS V14.01,2013-09-20 21:35:00,
2013-09-20 14:40:00,76.6,46.9,29.68,East,79,2.0,3.0,35,0.00,,CLR,0.00,VWS V14.01,2013-09-20 21:40:00,
2013-09-20 14:45:00,76.8,47.8,29.68,East,79,0.0,0.0,36,0.00,,CLR,0.00,VWS V14.01,2013-09-20 21:45:00,
2013-09-20 14:50:00,76.6,48.4,29.68,East,90,0.0,1.0,37,0.00,,CLR,0.00,VWS V14.01,2013-09-20 21:50:00,
2013-09-20 14:55:00,76.3,48.8,29.68,East,92,1.0,2.0,38,0.00,,CLR,0.00,VWS V14.01,2013-09-20 21:55:00,
2013-09-20 15:00:00,76.3,47.4,29.68,East,80,0.0,1.0,36,0.00,,CLR,0.00,VWS V14.01,2013-09-20 22:00:00,
2013-09-20 15:06:00,76.6,47.7,29.67,East,80,0.0,0.0,36,0.00,,CLR,0.00,VWS V14.01,2013-09-20 22:06:00,
2013-09-20 15:11:00,76.8,47.8,29.67,East,93,0.0,1.0,36,0.00,,CLR,0.00,VWS V14.01,2013-09-20 22:11:00,
2013-09-20 15:16:00,77.0,48.0,29.67,East,93,0.0,2.0,36,0.00,,CLR,0.00,VWS V14.01,2013-09-20 22:16:00,
2013-09-20 15:21:00,77.3,46.8,29.66,East,88,2.0,2.0,34,0.00,,CLR,0.00,VWS V14.01,2013-09-20 22:21:00,
2013-09-20 15:26:00,77.5,46.2,29.66,East,80,2.0,6.0,33,0.00,,CLR,0.00,VWS V14.01,2013-09-20 22:26:00,
2013-09-20 15:31:00,77.5,46.2,29.66,NE,48,5.0,5.0,33,0.00,,CLR,0.00,VWS V14.01,2013-09-20 22:31:00,
2013-09-20 15:36:00,77.5,45.3,29.66,ENE,72,0.0,2.0,32,0.00,,CLR,0.00,VWS V14.01,2013-09-20 22:36:00,
2013-09-20 15:41:00,77.3,46.8,29.66,ENE,72,2.0,2.0,34,0.00,,CLR,0.00,VWS V14.01,2013-09-20 22:41:00,
2013-09-20 15:46:00,77.3,47.5,29.66,ENE,62,3.0,3.0,35,0.00,,CLR,0.00,VWS V14.01,2013-09-20 22:46:00,
2013-09-20 15:51:00,77.3,47.5,29.65,ENE,75,0.0,2.0,35,0.00,,CLR,0.00,VWS V14.01,2013-09-20 22:51:00,
2013-09-20 15:56:00,77.3,47.5,29.65,ENE,78,3.0,3.0,35,0.00,,CLR,0.00,VWS V14.01,2013-09-20 22:56:00,
2013-09-20 16:01:00,77.3,47.5,29.65,ENE,66,2.0,5.0,35,0.00,,CLR,0.00,VWS V14.01,2013-09-20 23:01:00,
2013-09-20 16:07:00,77.1,46.6,29.64,East,89,0.0,5.0,34,0.00,,CLR,0.00,VWS V14.01,2013-09-20 23:07:00,
2013-09-20 16:12:00,76.8,48.6,29.64,NE,54,0.0,0.0,37,0.00,,CLR,0.00,VWS V14.01,2013-09-20 23:12:00,
2013-09-20 16:17:00,76.6,48.4,29.64,East,92,0.0,3.0,37,0.00,,CLR,0.00,VWS V14.01,2013-09-20 23:17:00,
2013-09-20 16:22:00,76.6,48.4,29.64,ENE,71,0.0,0.0,37,0.00,,CLR,0.00,VWS V14.01,2013-09-20 23:22:00,
2013-09-20 16:27:00,76.6,48.4,29.64,East,80,2.0,5.0,37,0.00,,CLR,0.00,VWS V14.01,2013-09-20 23:27:00,
2013-09-20 16:32:00,76.6,46.9,29.64,East,80,0.0,2.0,35,0.00,,CLR,0.00,VWS V14.01,2013-09-20 23:32:00,
2013-09-20 16:37:00,76.4,48.2,29.64,East,80,0.0,0.0,37,0.00,,CLR,0.00,VWS V14.01,2013-09-20 23:37:00,
2013-09-20 16:42:00,76.3,48.1,29.64,ESE,109,0.0,3.0,37,0.00,,CLR,0.00,VWS V14.01,2013-09-20 23:42:00,
2013-09-20 16:47:00,75.9,47.1,29.63,ENE,78,0.0,0.0,36,0.00,,CLR,0.00,VWS V14.01,2013-09-20 23:47:00,
2013-09-20 16:52:00,75.6,48.9,29.63,ENE,78,0.0,0.0,39,0.00,,CLR,0.00,VWS V14.01,2013-09-20 23:52:00,
2013-09-20 16:57:00,75.4,48.8,29.63,ENE,78,0.0,0.0,39,0.00,,CLR,0.00,VWS V14.01,2013-09-20 23:57:00,
2013-09-20 17:02:00,75.2,48.6,29.62,ENE,78,0.0,0.0,39,0.00,,CLR,0.00,VWS V14.01,2013-09-21 00:02:00,
2013-09-20 17:07:00,75.4,47.3,29.62,ENE,78,0.0,3.0,37,0.00,,CLR,0.00,VWS V14.01,2013-09-21 00:07:00,
2013-09-20 17:12:00,75.7,49.0,29.62,East,82,0.0,0.0,39,0.00,,CLR,0.00,VWS V14.01,2013-09-21 00:12:00,
2013-09-20 17:18:00,75.7,47.6,29.61,East,89,0.0,0.0,37,0.00,,CLR,0.00,VWS V14.01,2013-09-21 00:18:00,
2013-09-20 17:23:00,75.7,49.0,29.61,East,89,0.0,0.0,39,0.00,,CLR,0.00,VWS V14.01,2013-09-21 00:23:00,
2013-09-20 17:28:00,75.6,47.5,29.61,ESE,107,0.0,0.0,37,0.00,,CLR,0.00,VWS V14.01,2013-09-21 00:28:00,
2013-09-20 17:33:00,75.2,48.6,29.61,ENE,59,0.0,0.0,39,0.00,,CLR,0.00,VWS V14.01,2013-09-21 00:33:00,
2013-09-20 17:38:00,74.9,49.6,29.61,ENE,62,0.0,2.0,41,0.00,,CLR,0.00,VWS V14.01,2013-09-21 00:38:00,
2013-09-20 17:43:00,74.5,49.9,29.61,ENE,62,0.0,0.0,42,0.00,,CLR,0.00,VWS V14.01,2013-09-21 00:43:00,
2013-09-20 17:48:00,74.0,48.8,29.60,East,99,0.0,0.0,41,0.00,,CLR,0.00,VWS V14.01,2013-09-21 00:48:00,
2013-09-20 17:53:00,73.3,50.1,29.60,ENE,61,0.0,0.0,44,0.00,,CLR,0.00,VWS V14.01,2013-09-21 00:53:00,
2013-09-20 17:58:00,72.6,50.1,29.60,ENE,61,0.0,0.0,45,0.00,,CLR,0.00,VWS V14.01,2013-09-21 00:58:00,
2013-09-20 18:03:00,71.9,50.0,29.60,ENE,61,0.0,0.0,46,0.00,,CLR,0.00,VWS V14.01,2013-09-21 01:03:00,
2013-09-20 18:08:00,71.4,49.6,29.60,ENE,61,0.0,0.0,46,0.00,,CLR,0.00,VWS V14.01,2013-09-21 01:08:00,
2013-09-20 18:13:00,70.9,49.1,29.60,ENE,61,0.0,0.0,46,0.00,,CLR,0.00,VWS V14.01,2013-09-21 01:13:00,
2013-09-20 18:19:00,70.8,48.4,29.60,ENE,62,0.0,0.0,45,0.00,,CLR,0.00,VWS V14.01,2013-09-21 01:19:00,
2013-09-20 18:24:00,70.8,49.0,29.60,ENE,62,0.0,0.0,46,0.00,,CLR,0.00,VWS V14.01,2013-09-21 01:24:00,
2013-09-20 18:29:00,70.4,50.3,29.60,ENE,62,0.0,0.0,49,0.00,,CLR,0.00,VWS V14.01,2013-09-21 01:29:00,
2013-09-20 18:34:00,69.9,50.4,29.60,ENE,62,0.0,0.0,50,0.00,,CLR,0.00,VWS V14.01,2013-09-21 01:34:00,
2013-09-20 18:39:00,69.4,50.5,29.60,ENE,62,0.0,0.0,51,0.00,,CLR,0.00,VWS V14.01,2013-09-21 01:39:00,
2013-09-20 18:44:00,68.9,49.0,29.60,ENE,62,0.0,1.0,49,0.00,,CLR,0.00,VWS V14.01,2013-09-21 01:44:00,
2013-09-20 18:49:00,68.9,48.4,29.60,ENE,62,0.0,0.0,48,0.00,,CLR,0.00,VWS V14.01,2013-09-21 01:49:00,
2013-09-20 18:54:00,68.8,48.9,29.60,ENE,62,0.0,0.0,49,0.00,,CLR,0.00,VWS V14.01,2013-09-21 01:54:00,
2013-09-20 18:59:00,68.4,49.6,29.60,ENE,62,0.0,0.0,51,0.00,,CLR,0.00,VWS V14.01,2013-09-21 01:59:00,
2013-09-20 19:04:00,67.8,49.0,29.60,ENE,62,0.0,0.0,51,0.00,,CLR,0.00,VWS V14.01,2013-09-21 02:04:00,
2013-09-20 19:09:00,67.3,50.1,29.60,ENE,62,0.0,0.0,54,0.00,,CLR,0.00,VWS V14.01,2013-09-21 02:09:00,
2013-09-20 19:14:00,66.6,49.5,29.60,ENE,62,0.0,0.0,54,0.00,,CLR,0.00,VWS V14.01,2013-09-21 02:14:00,
2013-09-20 19:19:00,66.0,49.9,29.60,ENE,62,0.0,0.0,56,0.00,,CLR,0.00,VWS V14.01,2013-09-21 02:19:00,
2013-09-20 19:24:00,65.5,48.9,29.60,ENE,62,0.0,0.0,55,0.00,,CLR,0.00,VWS V14.01,2013-09-21 02:24:00,
2013-09-20 19:29:00,65.3,48.7,29.60,ENE,62,0.0,0.0,55,0.00,,CLR,0.00,VWS V14.01,2013-09-21 02:29:00,
2013-09-20 19:34:00,64.9,48.8,29.60,ENE,62,0.0,0.0,56,0.00,,CLR,0.00,VWS V14.01,2013-09-21 02:34:00,
2013-09-20 19:39:00,64.5,49.0,29.60,ENE,62,0.0,0.0,57,0.00,,CLR,0.00,VWS V14.01,2013-09-21 02:39:00,
2013-09-20 19:45:00,64.2,48.7,29.60,ENE,62,0.0,0.0,57,0.00,,CLR,0.00,VWS V14.01,2013-09-21 02:45:00,
2013-09-20 19:50:00,63.9,48.8,29.60,ENE,62,0.0,0.0,58,0.00,,CLR,0.00,VWS V14.01,2013-09-21 02:50:00,
2013-09-20 19:55:00,63.4,48.8,29.60,ENE,62,0.0,0.0,59,0.00,,CLR,0.00,VWS V14.01,2013-09-21 02:55:00,
2013-09-20 20:00:00,63.4,48.8,29.60,ENE,62,0.0,0.0,59,0.00,,CLR,0.00,VWS V14.01,2013-09-21 03:00:00,
2013-09-20 20:05:00,63.3,48.7,29.60,ENE,62,0.0,0.0,59,0.00,,CLR,0.00,VWS V14.01,2013-09-21 03:05:00,
2013-09-20 20:10:00,63.1,48.6,29.60,ENE,62,0.0,0.0,59,0.00,,CLR,0.00,VWS V14.01,2013-09-21 03:10:00,
2013-09-20 20:15:00,62.8,48.3,29.60,ENE,62,0.0,0.0,59,0.00,,CLR,0.00,VWS V14.01,2013-09-21 03:15:00,
2013-09-20 20:20:00,62.6,48.1,29.60,ENE,62,0.0,0.0,59,0.00,,CLR,0.00,VWS V14.01,2013-09-21 03:20:00,
2013-09-20 20:25:00,62.5,48.0,29.60,ENE,62,0.0,0.0,59,0.00,,CLR,0.00,VWS V14.01,2013-09-21 03:25:00,
2013-09-20 20:30:00,62.5,48.0,29.60,ENE,62,0.0,0.0,59,0.00,,CLR,0.00,VWS V14.01,2013-09-21 03:30:00,
2013-09-20 20:35:00,62.5,48.0,29.60,ENE,62,0.0,0.0,59,0.00,,CLR,0.00,VWS V14.01,2013-09-21 03:35:00,
2013-09-20 20:40:00,62.5,47.5,29.60,ENE,62,0.0,0.0,58,0.00,,CLR,0.00,VWS V14.01,2013-09-21 03:40:00,
2013-09-20 20:46:00,62.5,47.5,29.60,ENE,62,0.0,0.0,58,0.00,,CLR,0.00,VWS V14.01,2013-09-21 03:46:00,
2013-09-20 20:51:00,62.5,47.5,29.59,ENE,62,0.0,0.0,58,0.00,,CLR,0.00,VWS V14.01,2013-09-21 03:51:00,
2013-09-20 20:56:00,62.3,47.8,29.59,ENE,62,0.0,0.0,59,0.00,,CLR,0.00,VWS V14.01,2013-09-21 03:56:00,
2013-09-20 21:01:00,62.2,47.7,29.59,ENE,62,0.0,0.0,59,0.00,,CLR,0.00,VWS V14.01,2013-09-21 04:01:00,
2013-09-20 21:02:00,62.2,47.7,29.59,ENE,62,0.0,0.0,59,0.00,,CLR,0.00,VWS V14.01,2013-09-21 04:02:00,
2013-09-20 21:03:00,62.0,47.5,29.59,ENE,62,0.0,0.0,59,0.00,,CLR,0.00,VWS V14.01,2013-09-21 04:03:00,
2013-09-20 21:08:00,61.9,47.9,29.59,ENE,62,0.0,0.0,60,0.00,,CLR,0.00,VWS V14.01,2013-09-21 04:08:00,
2013-09-20 21:13:00,61.5,47.5,29.59,ENE,62,0.0,0.0,60,0.00,,CLR,0.00,VWS V14.01,2013-09-21 04:13:00,
2013-09-20 21:18:00,61.2,47.2,29.59,ENE,62,0.0,0.0,60,0.00,,CLR,0.00,VWS V14.01,2013-09-21 04:18:00,
2013-09-20 21:23:00,61.1,47.6,29.59,ENE,62,0.0,0.0,61,0.00,,CLR,0.00,VWS V14.01,2013-09-21 04:23:00,
2013-09-20 21:28:00,60.9,47.4,29.59,ENE,62,0.0,0.0,61,0.00,,CLR,0.00,VWS V14.01,2013-09-21 04:28:00,
2013-09-20 21:33:00,60.8,47.3,29.59,ENE,62,0.0,0.0,61,0.00,,CLR,0.00,VWS V14.01,2013-09-21 04:33:00,
2013-09-20 21:38:00,60.9,47.4,29.59,ENE,62,0.0,0.0,61,0.00,,CLR,0.00,VWS V14.01,2013-09-21 04:38:00,
2013-09-20 21:44:00,60.9,47.4,29.59,ENE,62,0.0,0.0,61,0.00,,CLR,0.00,VWS V14.01,2013-09-21 04:44:00,
2013-09-20 21:49:00,60.9,47.8,29.58,ENE,62,0.0,0.0,62,0.00,,CLR,0.00,VWS V14.01,2013-09-21 04:49:00,
2013-09-20 21:54:00,60.8,47.7,29.58,ENE,62,0.0,0.0,62,0.00,,CLR,0.00,VWS V14.01,2013-09-21 04:54:00,
2013-09-20 21:59:00,60.8,47.7,29.58,ENE,62,0.0,0.0,62,0.00,,CLR,0.00,VWS V14.01,2013-09-21 04:59:00,
2013-09-20 22:04:00,60.9,47.4,29.58,ENE,62,0.0,0.0,61,0.00,,CLR,0.00,VWS V14.01,2013-09-21 05:04:00,
2013-09-20 22:09:00,61.1,47.6,29.58,ENE,62,0.0,0.0,61,0.00,,CLR,0.00,VWS V14.01,2013-09-21 05:09:00,
2013-09-20 22:14:00,61.2,47.7,29.58,ENE,62,0.0,0.0,61,0.00,,CLR,0.00,VWS V14.01,2013-09-21 05:14:00,
2013-09-20 22:19:00,61.2,48.1,29.57,ENE,62,0.0,0.0,62,0.00,,CLR,0.00,VWS V14.01,2013-09-21 05:19:00,
2013-09-20 22:24:00,61.1,48.0,29.57,ENE,62,0.0,0.0,62,0.00,,CLR,0.00,VWS V14.01,2013-09-21 05:24:00,
2013-09-20 22:29:00,60.9,48.2,29.57,ENE,62,0.0,0.0,63,0.00,,CLR,0.00,VWS V14.01,2013-09-21 05:29:00,
2013-09-20 22:34:00,60.8,48.1,29.57,ENE,62,0.0,0.0,63,0.00,,CLR,0.00,VWS V14.01,2013-09-21 05:34:00,
2013-09-20 22:40:00,60.6,48.0,29.57,ENE,62,0.0,0.0,63,0.00,,CLR,0.00,VWS V14.01,2013-09-21 05:40:00,
2013-09-20 22:45:00,60.5,47.9,29.57,ENE,62,0.0,0.0,63,0.00,,CLR,0.00,VWS V14.01,2013-09-21 05:45:00,
2013-09-20 22:50:00,60.3,48.1,29.57,ENE,62,0.0,0.0,64,0.00,,CLR,0.00,VWS V14.01,2013-09-21 05:50:00,
2013-09-20 22:55:00,60.2,48.0,29.57,ENE,62,0.0,0.0,64,0.00,,CLR,0.00,VWS V14.01,2013-09-21 05:55:00,
2013-09-20 23:00:00,59.9,47.7,29.57,ENE,62,0.0,0.0,64,0.00,,CLR,0.00,VWS V14.01,2013-09-21 06:00:00,
2013-09-20 23:05:00,59.7,47.5,29.56,ENE,62,0.0,0.0,64,0.00,,CLR,0.00,VWS V14.01,2013-09-21 06:05:00,
2013-09-20 23:10:00,59.6,47.8,29.56,ENE,62,0.0,0.0,65,0.00,,CLR,0.00,VWS V14.01,2013-09-21 06:10:00,
2013-09-20 23:15:00,59.4,47.7,29.56,ENE,62,0.0,0.0,65,0.00,,CLR,0.00,VWS V14.01,2013-09-21 06:15:00,
2013-09-20 23:20:00,59.1,47.8,29.56,ENE,62,0.0,0.0,66,0.00,,CLR,0.00,VWS V14.01,2013-09-21 06:20:00,
2013-09-20 23:25:00,59.0,48.1,29.56,ENE,62,0.0,0.0,67,0.00,,CLR,0.00,VWS V14.01,2013-09-21 06:25:00,
2013-09-20 23:31:00,58.8,47.9,29.56,ENE,62,0.0,0.0,67,0.00,,CLR,0.00,VWS V14.01,2013-09-21 06:31:00,
2013-09-20 23:36:00,58.6,47.7,29.56,ENE,62,0.0,0.0,67,0.00,,CLR,0.00,VWS V14.01,2013-09-21 06:36:00,
2013-09-20 23:41:00,58.5,47.6,29.56,ENE,62,0.0,0.0,67,0.00,,CLR,0.00,VWS V14.01,2013-09-21 06:41:00,
2013-09-20 23:46:00,58.5,47.6,29.56,ENE,62,0.0,0.0,67,0.00,,CLR,0.00,VWS V14.01,2013-09-21 06:46:00,
2013-09-20 23:51:00,58.6,47.3,29.57,ENE,62,0.0,0.0,66,0.00,,CLR,0.00,VWS V14.01,2013-09-21 06:51:00,
2013-09-20 23:56:00,58.6,47.3,29.57,ENE,62,0.0,0.0,66,0.00,,CLR,0.00,VWS V14.01,2013-09-21 06:56:00,